[[[{"header":{"parameterUnit":"kt","parameterCategory":2,"dx":1,"dy":1,"la1":30.253999710083008,"la2":30.299108505249023,"lo1":-89.0895004272461,"lo2":-89.04439544677734,"nx":28,"ny":28,"refTime":"2022-10-16T21:00:00:Z","depth":0,"parameterNumber":1,"parameterNumberName":"U-component_of_WINDS"},"data":[1.7562,1.7534,1.7517,1.7478,1.7455,1.7425,1.7409,1.7386,1.7363,1.7326,1.7302,1.728,1.725,1.7217,1.7189,1.718,1.717,1.7176,1.7164,1.7156,1.7153,1.7151,1.7157,1.7174,1.7174,1.7176,1.7176,1.7176,1.7566,1.7543,1.7516,1.7478,1.7455,1.744,1.7408,1.739,1.7364,1.7334,1.7308,1.7273,1.7243,1.7209,1.7177,1.7164,1.7155,1.7157,1.7158,1.7153,1.7144,1.715,1.7166,1.7166,1.7166,1.7166,1.7166,1.7166,1.7568,1.7551,1.7517,1.7487,1.7462,1.7436,1.7417,1.739,1.7363,1.7326,1.7307,1.7276,1.7242,1.7192,1.7169,1.7145,1.7139,1.7135,1.7134,1.7133,1.7137,1.7142,1.7138,1.7138,1.7138,1.7138,1.7138,0,1.7563,1.7549,1.752,1.7487,1.7463,1.7435,1.7405,1.7393,1.7353,1.7332,1.7299,1.7277,1.7234,1.7201,1.7165,1.7141,1.7121,1.7116,1.7113,1.7122,1.7138,1.7132,1.7119,1.7115,1.7115,1.7115,1.7114,1.7114,1.7565,1.7546,1.7499,1.7482,1.746,1.7431,1.741,1.7376,1.7355,1.7313,1.7299,1.7265,1.7236,1.7186,1.7152,1.7119,1.7108,1.711,1.7103,1.7114,1.711,1.7112,1.7111,1.7111,1.7112,1.7112,1.7112,0,1.7568,1.7535,1.7499,1.7452,1.744,1.7422,1.7382,1.7363,1.7337,1.7307,1.7298,1.7256,1.7223,1.7188,1.7142,1.7125,1.7099,1.7089,1.7113,1.7109,1.7108,1.7109,1.7106,1.7105,1.7086,1.7086,1.7086,0,1.7557,1.7532,1.7484,1.7464,1.7438,1.7402,1.7376,1.735,1.7317,1.7293,1.7264,1.7242,1.7199,1.7172,1.7146,1.7117,1.7108,1.7093,1.7086,1.7096,1.7098,1.7083,1.7083,1.7069,1.7069,1.7069,1.7069,0,1.7565,1.7509,1.7477,1.7459,1.7404,1.739,1.7366,1.7328,1.7306,1.7272,1.7258,1.7221,1.7201,1.7173,1.714,1.7137,1.7103,1.7091,1.7088,1.7089,1.7081,1.7082,1.7089,1.7069,1.7069,1.7069,1.7069,0,1.7549,1.7515,1.7473,1.7427,1.7414,1.7392,1.7353,1.7325,1.7287,1.7268,1.7241,1.7215,1.7185,1.7178,1.7136,1.7143,1.7125,1.7107,1.7106,1.71,1.7092,1.7103,1.7113,1.7113,1.7098,1.7098,1.7098,0,1.757,1.7516,1.7484,1.7444,1.7414,1.7383,1.7358,1.7324,1.7297,1.7268,1.7237,1.7204,1.7189,1.7173,1.7158,1.7125,1.7117,1.7125,1.7085,1.7084,1.7098,1.7107,1.7117,1.7115,1.7101,1.7101,1.71,0,1.758,1.7511,1.7506,1.7483,1.743,1.7403,1.7374,1.7332,1.7315,1.7277,1.7253,1.7203,1.7191,1.7164,1.7137,1.7123,1.7122,1.7111,1.7109,1.7116,1.7098,1.7109,1.7109,1.7108,1.7107,1.7107,1.7102,0,1.7567,1.7534,1.7518,1.7465,1.7439,1.7409,1.7368,1.7346,1.7324,1.7295,1.7256,1.7214,1.7169,1.7157,1.7134,1.7112,1.711,1.7096,1.7084,1.709,1.7087,1.7086,1.7092,1.7091,1.7091,1.709,0,0,1.7596,1.7546,1.7508,1.7477,1.7452,1.7417,1.739,1.7362,1.7303,1.7287,1.7281,1.7204,1.7169,1.7125,1.7124,1.7105,1.7097,1.7095,1.7087,1.7087,1.7086,1.7085,1.7084,1.7089,1.7089,1.7089,1.7089,0,1.7582,1.7547,1.752,1.7489,1.7441,1.741,1.7404,1.7349,1.7328,1.7288,1.7258,1.7229,1.7166,1.7134,1.711,1.71,1.7079,1.7089,1.71,1.7083,1.7084,1.7084,1.7083,1.7082,1.7088,1.7088,1.7088,0,1.7585,1.7545,1.7527,1.7466,1.7433,1.7401,1.738,1.7346,1.7322,1.7281,1.7241,1.7212,1.7164,1.7127,1.7109,1.7102,1.7064,1.7067,1.7069,1.7065,1.7047,1.7048,1.7049,1.7041,1.7041,1.7041,0,0,1.7579,1.7546,1.7489,1.7459,1.7441,1.7394,1.7371,1.7346,1.7304,1.7287,1.7247,1.7207,1.7171,1.7147,1.7109,1.7074,1.7062,1.7063,1.7065,1.7067,1.7065,1.7047,1.7048,1.7041,1.7041,1.7041,0,0,1.7574,1.7508,1.7492,1.7452,1.7414,1.7355,1.7339,1.7318,1.7279,1.7277,1.7231,1.7218,1.7182,1.7153,1.716,1.7104,1.7093,1.7091,1.7124,1.7126,1.7128,1.7136,1.713,0,0,0,0,0,1.7537,1.7517,1.7503,1.749,1.7411,1.7363,1.7353,1.7314,1.7309,1.7297,1.7261,1.7238,1.7148,1.7153,1.714,1.7132,1.7043,1.7042,1.7042,1.7077,1.7079,1.7082,0,0,0,0,0,0,1.7532,1.7515,1.7504,1.7445,1.7426,1.7363,1.7346,1.7335,1.7309,1.7306,1.7246,1.7236,1.7202,1.7157,1.7146,1.7139,1.7133,1.7042,1.7042,1.7042,1.7078,1.708,1.7082,0,0,0,0,0,1.7527,1.7514,1.7396,1.7444,1.7429,1.7373,1.7346,1.7337,1.7316,1.7258,1.7248,1.7289,1.7203,1.7191,1.715,1.7145,1.714,1.7137,1.7042,1.7042,1.7042,1.7079,0,0,0,0,0,0,1.7523,1.7505,1.7392,1.7386,1.7449,1.7376,1.7363,1.7339,1.727,1.7259,1.73,1.7298,1.7203,1.7194,1.7185,1.715,1.7146,1.7142,1.714,1.7042,1.7042,1.7042,0,0,0,0,0,0,1.7511,1.75,1.7389,1.7397,1.7391,1.7379,1.7367,1.7326,1.7269,1.7315,1.7311,1.73,1.7216,1.7196,1.7188,1.7125,1.7151,1.7147,1.7145,1.7143,1.7042,1.7042,0,0,0,0,0,0,1.7506,1.7496,1.7398,1.7393,1.7388,1.7315,1.7341,1.7262,1.7277,1.7318,1.7277,1.7277,1.7219,1.7211,1.7191,1.7132,1.7127,1.7151,1.7148,1.7146,1.7145,0,0,0,0,0,0,0,1.7501,1.7578,1.743,1.7391,1.7386,1.7329,1.7327,1.7325,1.7277,1.7277,1.7277,1.7277,1.7173,1.7169,1.7164,1.7137,0,0,1.7151,1.7149,0,0,0,0,0,0,0,0,1.7581,1.7579,1.7429,1.7428,1.7427,1.7328,1.7327,1.7325,1.7277,1.7277,1.7277,1.7277,1.7172,1.7168,1.7165,0,0,0,0,0,0,0,0,0,0,0,0,0,0,0,1.7429,1.7428,0,1.7328,1.7327,1.7326,1.7277,1.7277,1.7277,1.7277,1.7171,1.7168,1.7165,0,0,0,0,0,0,0,0,0,0,0,0,0,0,0,0,0,0,0,0,0,0,0,0,0,0,0,0,0,0,0,0,0,0,0,0,0,0,0,0,0,0,0,0,0,0,0,0,0,0,0,0,0,0,0,0,0,0,0,0,0,0,0,0,0,0,0,0,0]}],[{"header":{"parameterUnit":"kt","parameterCategory":2,"dx":1,"dy":1,"la1":30.253999710083008,"la2":30.299108505249023,"lo1":-89.0895004272461,"lo2":-89.04439544677734,"nx":28,"ny":28,"refTime":"2022-10-16T21:00:00:Z","depth":0,"parameterNumber":2,"parameterNumberName":"V-component_of_WINDS"},"data":[-13.0265,-13.0447,-13.0473,-13.0691,-13.0751,-13.0903,-13.0964,-13.1046,-13.1117,-13.1297,-13.1404,-13.1445,-13.1521,-13.1651,-13.1764,-13.1779,-13.1823,-13.187,-13.1877,-13.1651,-13.1621,-13.1592,-13.1551,-13.1881,-13.1881,-13.2106,-13.2108,-13.211,-13.0097,-13.016,-13.0284,-13.0421,-13.0526,-13.0498,-13.0602,-13.069,-13.0824,-13.0913,-13.102,-13.1178,-13.1305,-13.1366,-13.149,-13.157,-13.156,-13.1601,-13.1593,-13.1604,-13.1365,-13.1321,-13.1608,-13.1608,-13.1608,-13.1607,-13.1607,-13.1607,-12.9799,-12.9908,-13.0006,-13.014,-13.0215,-13.0306,-13.0411,-13.046,-13.0578,-13.0715,-13.072,-13.087,-13.0959,-13.1119,-13.1177,-13.1292,-13.1248,-13.1299,-13.1311,-13.1322,-13.1331,-13.0998,-13.1314,-13.1313,-13.1313,-13.1312,-13.1312,0,-12.9587,-12.9602,-12.9722,-12.985,-12.9949,-13.0049,-13.0144,-13.021,-13.0243,-13.0338,-13.0477,-13.056,-13.0723,-13.0853,-13.0974,-13.1023,-13.0994,-13.0995,-13.1029,-13.1027,-13.101,-13.1017,-13.0621,-13.0984,-13.0981,-13.0979,-13.0978,-13.0977,-12.9284,-12.9408,-12.9522,-12.9603,-12.9661,-12.9791,-12.9871,-12.9892,-12.9976,-13.0093,-13.0185,-13.0317,-13.0423,-13.0638,-13.0686,-13.0806,-13.0792,-13.0928,-13.0809,-13.0804,-13.0788,-13.0779,-13.079,-13.0948,-13.0951,-13.0954,-13.0957,0,-12.911,-12.9151,-12.935,-12.9449,-12.9477,-12.9605,-12.9687,-12.9794,-12.9828,-12.9978,-13.0014,-13.0066,-13.0199,-13.0227,-13.0383,-13.0392,-13.0595,-13.0581,-13.0565,-13.0561,-13.0683,-13.0669,-13.1079,-13.1132,-13.0795,-13.0798,-13.0801,0,-12.8865,-12.9026,-12.9076,-12.9189,-12.9368,-12.9384,-12.9559,-12.9606,-12.9684,-12.9803,-12.9779,-12.989,-12.9907,-13.0021,-13.0035,-13.0206,-13.0236,-13.0251,-13.0252,-13.0251,-13.0249,-13.0289,-13.0271,-13.0254,-13.0252,-13.025,-13.0248,0,-12.8585,-12.8801,-12.8986,-12.9041,-12.916,-12.9246,-12.9298,-12.9385,-12.9463,-12.9568,-12.9618,-12.9739,-12.9803,-12.9896,-12.9912,-12.983,-13.0123,-13.0013,-13.0137,-13.0137,-13.0196,-13.0191,-13.0552,-13.0246,-13.0245,-13.0244,-13.0244,0,-12.839,-12.8501,-12.8765,-12.8863,-12.8918,-12.9039,-12.916,-12.927,-12.9363,-12.938,-12.9462,-12.9447,-12.9602,-12.9491,-12.9702,-12.959,-12.9655,-12.9684,-12.9694,-12.9704,-12.9578,-12.9773,-13.0118,-13.0153,-12.972,-12.9716,-12.9712,0,-12.8057,-12.8334,-12.8349,-12.8597,-12.8728,-12.8692,-12.8826,-12.891,-12.8944,-12.9057,-12.9093,-12.922,-12.9144,-12.9186,-12.9289,-12.9328,-12.9474,-12.931,-12.9464,-12.947,-12.9438,-12.9758,-12.98,-13.0041,-12.9657,-12.9663,-12.9667,0,-12.7803,-12.7948,-12.7991,-12.8053,-12.8168,-12.8277,-12.8432,-12.8563,-12.8637,-12.8733,-12.886,-12.9041,-12.8989,-12.906,-12.9059,-12.9163,-12.9376,-12.9092,-12.9094,-12.9139,-12.9632,-12.9672,-12.9712,-12.9351,-12.9358,-12.9364,-12.9623,0,-12.7494,-12.7637,-12.7757,-12.7895,-12.7984,-12.8141,-12.8172,-12.826,-12.8251,-12.8283,-12.8471,-12.8543,-12.8672,-12.8726,-12.8717,-12.8949,-12.8913,-12.8856,-12.8745,-12.8956,-12.9042,-12.9077,-12.8615,-12.8612,-12.8609,-12.8607,0,0,-12.7163,-12.7368,-12.7378,-12.753,-12.7604,-12.7563,-12.7728,-12.7795,-12.7931,-12.7982,-12.7922,-12.8186,-12.8246,-12.847,-12.8539,-12.8592,-12.8634,-12.8558,-12.8856,-12.8884,-12.891,-12.9001,-12.9038,-12.8603,-12.8602,-12.8601,-12.86,0,-12.7056,-12.7126,-12.7291,-12.7362,-12.7468,-12.7494,-12.7534,-12.7628,-12.7655,-12.7841,-12.7799,-12.7915,-12.8125,-12.8194,-12.8256,-12.8534,-12.8492,-12.8572,-12.8711,-12.8829,-12.8861,-12.8888,-12.8984,-12.9019,-12.8594,-12.8594,-12.8594,0,-12.6808,-12.688,-12.6964,-12.7134,-12.7201,-12.7336,-12.723,-12.7376,-12.7475,-12.7415,-12.7599,-12.7642,-12.7736,-12.7945,-12.804,-12.7987,-12.8362,-12.8249,-12.8266,-12.8275,-12.839,-12.8428,-12.8461,-12.8021,-12.8018,-12.8017,0,0,-12.671,-12.6843,-12.6924,-12.7113,-12.7159,-12.7199,-12.7273,-12.7271,-12.7359,-12.7394,-12.7448,-12.7533,-12.7654,-12.7734,-12.7849,-12.8076,-12.8093,-12.8177,-12.8204,-12.8226,-12.8247,-12.8368,-12.8406,-12.8009,-12.8009,-12.8008,0,0,-12.6661,-12.6764,-12.674,-12.6963,-12.7051,-12.7139,-12.7252,-12.7224,-12.7331,-12.7315,-12.7315,-12.7337,-12.7533,-12.7576,-12.7468,-12.7809,-12.77,-12.7726,-12.7773,-12.7808,-12.7834,-12.7818,-12.7363,0,0,0,0,0,-12.6566,-12.6751,-12.6729,-12.6771,-12.6983,-12.7153,-12.718,-12.7186,-12.7109,-12.7198,-12.7239,-12.719,-12.7518,-12.7422,-12.7461,-12.758,-12.7907,-12.7925,-12.7942,-12.8056,-12.8092,-12.8122,0,0,0,0,0,0,-12.6582,-12.6634,-12.6724,-12.6821,-12.6868,-12.7146,-12.7017,-12.7024,-12.71,-12.7088,-12.7184,-12.7193,-12.7199,-12.7401,-12.7437,-12.755,-12.7351,-12.7914,-12.7929,-12.7943,-12.8068,-12.8098,-12.8123,0,0,0,0,0,-12.6595,-12.6637,-12.6976,-12.6818,-12.6859,-12.6913,-12.701,-12.7015,-12.7073,-12.7135,-12.7142,-12.7071,-12.7202,-12.7232,-12.7423,-12.7534,-12.7327,-12.734,-12.7924,-12.7936,-12.7947,-12.8083,0,0,0,0,0,0,-12.6605,-12.6641,-12.6985,-12.6997,-12.6748,-12.6897,-12.6921,-12.7007,-12.7114,-12.7124,-12.702,-12.701,-12.7207,-12.7229,-12.7253,-12.7528,-12.7307,-12.732,-12.7329,-12.7933,-12.7942,-12.7951,0,0,0,0,0,0,-12.6618,-12.6652,-12.6991,-12.6903,-12.6905,-12.6882,-12.6904,-12.7065,-12.7116,-12.6993,-12.6988,-12.7014,-12.717,-12.7228,-12.7246,-12.7498,-12.7292,-12.7304,-12.7313,-12.7319,-12.7941,-12.7948,0,0,0,0,0,0,-12.6632,-12.6661,-12.6899,-12.6902,-12.6903,-12.7046,-12.7024,-12.724,-12.7045,-12.6989,-12.7027,-12.7019,-12.717,-12.7188,-12.7242,-12.7486,-12.7495,-12.7292,-12.7301,-12.7307,-12.7311,0,0,0,0,0,0,0,-12.6644,-12.6451,-12.691,-12.6901,-12.6902,-12.7115,-12.7118,-12.7122,-12.7043,-12.7036,-12.7029,-12.7022,-12.7218,-12.7232,-12.7246,-12.7477,0,0,-12.7291,-12.7297,0,0,0,0,0,0,0,0,-12.6439,-12.6448,-12.691,-12.6913,-12.6916,-12.7115,-12.7118,-12.7121,-12.7042,-12.7036,-12.703,-12.7025,-12.7222,-12.7233,-12.7245,0,0,0,0,0,0,0,0,0,0,0,0,0,0,0,-12.6911,-12.6913,0,-12.7116,-12.7118,-12.712,-12.7041,-12.7036,-12.7032,-12.7027,-12.7225,-12.7234,-12.7244,0,0,0,0,0,0,0,0,0,0,0,0,0,0,0,0,0,0,0,0,0,0,0,0,0,0,0,0,0,0,0,0,0,0,0,0,0,0,0,0,0,0,0,0,0,0,0,0,0,0,0,0,0,0,0,0,0,0,0,0,0,0,0,0,0,0,0,0,0]}]]]